Location: Eitze
(52.9840°N, 9.6894°E)
Time: 23:55:40
(UTC+00:00)

Cosmos 1782 - Pass Details

Date: 19 May 2025
Orbit: 478 x 490 km, 82.5° (Epoch: 15 June)

Event Time Altitude Azimuth Distance (km) Brightness Sun altitude
Rises 20:22:32 0° 214° (SSW) 2,560 6.1 -7.8°
Reaches altitude 10° 20:24:47 10° 224° (SW) 1,682 5.3 -8.0°
Maximum altitude 20:28:07 32° 289° (WNW) 872 4.5 -8.3°
Drops below altitude 10° 20:31:28 10° 354° (N) 1,689 6.3 -8.7°
Sets 20:33:45 0° 5° (N) 2,572 7.0 -8.9°
